Flag Weather past 2 weeks in Prenzlau, Brandenburg, Germany

Now
43 °F

Clear.


Feels Like: 36 °F
Forecast: 38 / 43 °F
Wind: 13 mph from Southeast

Location: Szczecin Airport

Current Time: Nov 23, 2014 at 2:55:33 PM

Latest Report: Nov 23, 2014 at 2:00 PM


Visibility: 4 mi

Pressure: 30.27 "Hg

Humidity: 81%

Dew point: 37 °F

Location of PrenzlauLocation

Historic Weather in Prenzlau — Graph

°F

Prenzlau temperature yesterday

Maximum temperature yesterday: 43 °F (at 10:30 AM)
Minimum temperature yesterday: 37 °F (at 12:00 AM)
Average temperature yesterday: 40 °F

Past Weeks' High & Low Weather Summary

 TemperatureHumidityPressure
High57 °F (Nov 12, 12:30 PM)100% (Nov 8, 7:30 PM)30.36 "Hg (Nov 8, 7:30 PM)
Low36 °F (Nov 9, 6:30 AM)71% (Nov 22, 2:30 PM)29.68 "Hg (Nov 16, 12:30 PM)
Average44 °F93%30.01 "Hg
* Reported Nov 8 2:00 PM — Nov 23 2:00 PM, Prenzlau, Weather by CustomWeather, © 2014

Note: Actual official high and low records may vary slightly from our data, if they occured in-between our weather recording intervals... More about our weather records

Advertising

Prenzlau weather history for previous 24 hours

 ConditionsComfort  
Time TempWeatherWind HumidityBarometerVisibility
2:00 PM
Nov 23
43 °FClear.13 mph81%30.27 "Hg4 mi
1:30 PM43 °FClear.15 mph87%30.27 "Hg4 mi
1:00 PM43 °FClear.13 mph87%30.30 "Hg4 mi
12:30 PM43 °FClear.14 mph87%30.30 "Hg4 mi
12:00 PM43 °FFog.13 mph87%30.30 "Hg3 mi
11:30 AM41 °FFog.12 mph87%30.30 "Hg3 mi
11:00 AM41 °FFog.14 mph87%30.30 "Hg3 mi
10:30 AM41 °FFog.12 mph87%30.33 "Hg3 mi
10:00 AM39 °FFog.12 mph93%30.30 "Hg3 mi
9:30 AM39 °FFog.10 mph93%30.30 "Hg2 mi
9:00 AM39 °FFog.10 mph93%30.33 "Hg2 mi
8:30 AM39 °FLight rain. Fog.8 mph93%30.33 "Hg2 mi
8:00 AM39 °FLight rain. Fog.10 mph93%30.30 "Hg2 mi
7:30 AM39 °FLight rain. Fog.7 mph93%30.30 "Hg2 mi
7:00 AM39 °FLight rain. Fog.7 mph93%30.30 "Hg2 mi
6:30 AM39 °FLight rain. Fog.7 mph93%30.30 "Hg3 mi
6:00 AM39 °FLight rain. Clear.9 mph93%30.30 "Hg4 mi
5:30 AM39 °FClear.10 mph93%30.30 "Hg4 mi
5:00 AM39 °FClear.9 mph93%30.27 "Hg4 mi
4:30 AM39 °FClear.10 mph93%30.27 "Hg4 mi
4:00 AM39 °FClear.7 mph93%30.30 "Hg4 mi
3:30 AM39 °FLight rain. Fog.10 mph93%30.27 "Hg3 mi
3:00 AM39 °FLight rain. Fog.13 mph93%30.27 "Hg3 mi
2:30 AM39 °FLight rain. Clear.7 mph93%30.30 "Hg4 mi
2:00 AM39 °FLight rain. Clear.10 mph93%30.30 "Hg4 mi
1:30 AM39 °FLight rain. Clear.7 mph93%30.30 "Hg5 mi
1:00 AM39 °FLight rain. Passing clouds.10 mph93%30.30 "HgN/A
12:30 AM41 °FLight rain. Passing clouds.9 mph81%30.30 "HgN/A
12:00 AM41 °FPassing clouds.8 mph81%30.30 "HgN/A
11:30 PM
Nov 22
41 °FPassing clouds.10 mph81%30.30 "HgN/A
11:00 PM41 °FPartly cloudy.8 mph81%30.30 "HgN/A
10:30 PM41 °FPassing clouds.8 mph81%30.30 "HgN/A
10:00 PM41 °FPassing clouds.9 mph81%30.30 "HgN/A
9:30 PM41 °FPassing clouds.8 mph81%30.30 "HgN/A
9:00 PM41 °FPassing clouds.10 mph81%30.30 "HgN/A
8:30 PM41 °FPassing clouds.9 mph81%30.33 "HgN/A
8:00 PM41 °FPassing clouds.9 mph81%30.33 "HgN/A
7:30 PM41 °FPassing clouds.7 mph81%30.33 "HgN/A
7:00 PM41 °FPassing clouds.7 mph81%30.30 "HgN/A
6:30 PM41 °FPassing clouds.8 mph81%30.30 "HgN/A
6:00 PM41 °FPassing clouds.7 mph81%30.30 "HgN/A
5:30 PM41 °FPassing clouds.7 mph81%30.30 "HgN/A
5:00 PM41 °FPassing clouds.8 mph76%30.30 "HgN/A
4:30 PM41 °FPassing clouds.7 mph76%30.30 "HgN/A
4:00 PM41 °FPassing clouds.7 mph76%30.30 "HgN/A
3:30 PM41 °FPartly sunny.8 mph76%30.30 "HgN/A
3:00 PM41 °FPartly sunny.8 mph76%30.30 "HgN/A
2:30 PM43 °FPartly sunny.9 mph71%30.30 "HgN/A
2:00 PM43 °FPartly sunny.10 mph76%30.30 "HgN/A
Weather by CustomWeather, © 2014

See weather overviewHow to use our weather pages